Estación Meteorológica Peña el Pijo (Robertgarden) [ 07/12/20 04:58:59 CEST ]

Fecha Hora Presion(HPa) Temp (°C) Humedad % Rocio (°C) Viento ( m/s) Direccion Lluvia 1Hora(mm) Lluvia 24H(mm) LLuvia Total(mm)
2020-Jan-19 01:09:07 1007.400 - - - - N     39.88
2020-Jan-19 02:09:51 1006.400 - - - - N     39.88
2020-Jan-19 03:09:36 1005.800 - - - - N     39.88
2020-Jan-19 04:11:44 1005.500 - - - - N     39.88
2020-Jan-19 05:09:31 1004.900 - - - - N     39.88
2020-Jan-19 06:09:31 1005.300 - - - - N     39.88
2020-Jan-19 07:09:13 1004.800 - - - - N     39.88
2020-Jan-19 08:08:53 1004.300 - - - - N     39.88
2020-Jan-19 09:09:08 1004.200 - - - - N     39.88
2020-Jan-19 10:09:23 1004.300 - - - - N     39.88
2020-Jan-19 11:09:19 1004.500 - - - - N     39.88
2020-Jan-19 12:09:01 1004.500 - - - - N     39.88
2020-Jan-19 13:08:52 1004.200 - - - - N     39.88
2020-Jan-19 14:08:50 1003.600 - - - - N     39.88
2020-Jan-19 15:09:10 1003.400 - - - - N     39.88
2020-Jan-19 16:09:26 1004.000 - - - - N     39.88
2020-Jan-19 17:09:12 1004.400 - - - - N     39.88
2020-Jan-19 18:09:02 1004.800 - - - - N     39.88
2020-Jan-19 19:09:13 1005.200 - - - - N     39.88
2020-Jan-19 20:09:35 1005.500 - - - - N     39.88
2020-Jan-19 21:09:09 1005.800 - - - - N     39.88
2020-Jan-19 22:09:01 1005.800 - - - - N     39.88
2020-Jan-19 23:09:07 1005.800 - - - - N     39.88

Temperatura Máxima:    Temperatura Mínima:
Presión Máxima:1007.400 Hpa    Presión Mínima:1003.400 Hpa


Volver